Hourly Data Report for May 11, 2012

All times are specified in Local Standard Time (LST). Add 1 hour to adjust for Daylight Saving Time where and when it is observed.

OTTAWA INTL A
ONTARIO

45°19'00.000" N
75°40'00.000" W
114.90 m
6106001
71628
YOW

Download Data

Hourly Data (May 2012)
Hourly Data Report for May 11, 2012
Temp Definition
°C
Dew Point Temp Definition
°C
Rel Hum Definition
%
Wind Dir Definition
10's deg

Wind Spd Definition
km/h
Visibility Definition
km
Stn Press Definition
kPa
Hmdx Definition


Wind Chill Definition


Weather Definition


TIME
00:00 Legend Double Dagger 6.9 2.4 73 25 8 10.0 99.43     LegendNANA
01:00 Legend Double Dagger 6.3 2.4 76 28 9 10.0 99.47     Cloudy
02:00 Legend Double Dagger 6.4 2.9 78 28 9 10.0 99.50     LegendNANA
03:00 Legend Double Dagger 6.4 1.9 73 27 14 10.0 99.54     LegendNANA
04:00 Legend Double Dagger 6.0 0.8 69 27 15 10.0 99.60     Cloudy
05:00 Legend Double Dagger 6.3 0.6 67 28 18 10.0 99.67     LegendNANA
06:00 Legend Double Dagger 6.7 0.6 65 28 23 10.0 99.76     LegendNANA
07:00 Legend Double Dagger 8.7 1.4 60 29 22 10.0 99.86     Mainly Clear
08:00 Legend Double Dagger 10.1 1.3 54 28 21 10.0 99.95     LegendNANA
09:00 Legend Double Dagger 12.2 1.6 48 29 20 10.0 99.96     LegendNANA
10:00 Legend Double Dagger 13.8 1.5 43 28 28 10.0 99.97     Mainly Clear
11:00 Legend Double Dagger 14.8 0.3 37 28 34 10.0 99.98     LegendNANA
12:00 Legend Double Dagger 15.8 -1.7 30 27 33 10.0 99.97     LegendNANA
13:00 Legend Double Dagger 17.1 -1.0 29 29 31 10.0 99.98     Mainly Clear
14:00 Legend Double Dagger 17.9 -0.8 28 28 34 10.0 99.99     LegendNANA
15:00 Legend Double Dagger 18.4 -1.3 26 28 35 10.0 99.98     LegendNANA
16:00 Legend Double Dagger 19.1 -2.4 23 29 30 10.0 100.00     Mainly Clear
17:00 Legend Double Dagger 19.1 -3.0 22 33 24 10.0 100.02     LegendNANA
18:00 Legend Double Dagger 18.3 -5.0 20 33 19 10.0 100.07     LegendNANA
19:00 Legend Double Dagger 15.8 -3.6 26 32 10 10.0 100.15     Clear
20:00 Legend Double Dagger 13.8 -3.4 30 30 7 10.0 100.25     LegendNANA
21:00 Legend Double Dagger 11.4 -2.0 39 28 10 10.0 100.34     LegendNANA
22:00 Legend Double Dagger 11.9 -2.3 37 31 5 10.0 100.37     Clear
23:00 Legend Double Dagger 8.2 -2.1 48 23 4 10.0 100.38     LegendNANA

Notes on Data Quality.

Legend

  • E = Estimated
  • M = Missing
  • NA = Not Available
  • ‡ = Partner data that is not subject to review by the National Climate Archives
Date modified: